This is the latest recevied weather packets stored in our database for station/object DO0SOB-11. If no packets are shown the sender has not sent any weather packets the latest 10 day(s).
| Time | Temp. | Humidity | Pressure | Rain* | Wind** | Luminosity | Snow |
|---|---|---|---|---|---|---|---|
| 1787573536 | 21.11° C | 100% | 983.3 hPa | - | - | - | - |
| 1787572636 | 19.44° C | 100% | 983.3 hPa | - | - | - | - |
| 1787571736 | 18.33° C | 100% | 983.4 hPa | - | - | - | - |
| 1787570836 | 18.33° C | 100% | 983.7 hPa | - | - | - | - |
| 1787569935 | 20.56° C | 100% | 983.7 hPa | - | - | - | - |
| 1787569035 | 17.78° C | 100% | 983.9 hPa | - | - | - | - |
| 1787568135 | 19.44° C | 100% | 984 hPa | - | - | - | - |
| 1787567235 | 18.33° C | 100% | 984.1 hPa | - | - | - | - |
| 1787566335 | 17.22° C | 100% | 984 hPa | - | - | - | - |
| 1787565435 | 17.22° C | 100% | 984.2 hPa | - | - | - | - |
| 1787564535 | 16.67° C | 100% | 984.2 hPa | - | - | - | - |
| 1787563635 | 16.11° C | 100% | 984.2 hPa | - | - | - | - |
| 1787562735 | 15.56° C | 100% | 984.3 hPa | - | - | - | - |
| 1787561835 | 17.22° C | 100% | 984.4 hPa | - | - | - | - |
| 1787560935 | 16.11° C | 100% | 984.5 hPa | - | - | - | - |
| 1787560035 | 14.44° C | 100% | 984.6 hPa | - | - | - | - |
| 1787559135 | 16.67° C | 100% | 984.5 hPa | - | - | - | - |
| 1787558234 | 16.11° C | 100% | 984.6 hPa | - | - | - | - |
| 1787557334 | 16.11° C | 100% | 984.5 hPa | - | - | - | - |
| 1787556434 | 16.67° C | 100% | 984.5 hPa | - | - | - | - |
| 1787555534 | 15.56° C | 100% | 984.4 hPa | - | - | - | - |
| 1787554634 | 14.44° C | 100% | 984.5 hPa | - | - | - | - |
| 1787553734 | 13.89° C | 100% | 984.7 hPa | - | - | - | - |
| 1787552834 | 13.33° C | 100% | 984.6 hPa | - | - | - | - |
| 1787551934 | 12.22° C | 100% | 984.9 hPa | - | - | - | - |
* Rain since midnight (hover to see other rain measurements)
** Current wind speed in m/s (hover to see current wind gust speed)